Total_Precipitation_Accumulation
0.50 0.41 0.30 0.23 0.17 0.14 0.10 0.07 0.04 0.02 0.01 0.03 0.05 0.08 0.09 0.15 0.24 0.24 0.25 0.29 0.33 0.36 0.33 0.26 0.17 0.11 0.09 0.09 0.13 0.16 0.21 0.29 0.36 0.38 0.33 0.29 0.24 0.15 0.09 0.07 0.07 0.09 0.09
0.63 0.53 0.43 0.36 0.29 0.26 0.27 0.18 0.07 0.04 0.02 0.02 0.03 0.05 0.07 0.12 0.18 0.19 0.20 0.29 0.40 0.37 0.41 0.42 0.34 0.22 0.17 0.16 0.17 0.19 0.20 0.22 0.27 0.31 0.30 0.32 0.28 0.23 0.18 0.16 0.16 0.13 0.11
0.66 0.65 0.58 0.48 0.42 0.42 0.39 0.31 0.18 0.10 0.06 0.04 0.02 0.02 0.03 0.06 0.06 0.07 0.06 0.09 0.21 0.35 0.43 0.45 0.39 0.32 0.26 0.21 0.17 0.16 0.16 0.16 0.20 0.23 0.24 0.25 0.24 0.23 0.22 0.21 0.23 0.21 0.20
0.64 0.73 0.68 0.59 0.51 0.53 0.52 0.46 0.32 0.19 0.10 0.06 0.04 0.02 0.03 0.03 0.03 0.04 0.03 0.03 0.07 0.15 0.30 0.32 0.31 0.33 0.29 0.23 0.18 0.11 0.09 0.10 0.10 0.12 0.16 0.17 0.15 0.16 0.16 0.20 0.24 0.26 0.26
0.77 0.87 0.90 0.83 0.75 0.68 0.60 0.47 0.39 0.28 0.15 0.10 0.07 0.05 0.03 0.03 0.04 0.04 0.03 0.03 0.02 0.05 0.11 0.11 0.12 0.13 0.17 0.19 0.18 0.13 0.08 0.07 0.08 0.09 0.10 0.10 0.08 0.08 0.10 0.14 0.16 0.19 0.21
1.12 1.23 1.18 1.18 1.14 0.93 0.77 0.63 0.52 0.42 0.27 0.19 0.14 0.10 0.06 0.05 0.05 0.05 0.04 0.04 0.03 0.02 0.02 0.03 0.07 0.06 0.06 0.09 0.11 0.11 0.11 0.09 0.08 0.07 0.07 0.07 0.06 0.05 0.06 0.09 0.10 0.13 0.17
1.44 1.62 1.55 1.54 1.46 1.25 1.12 1.05 1.09 0.96 0.66 0.35 0.30 0.23 0.13 0.07 0.07 0.07 0.06 0.06 0.05 0.05 0.03 0.01 0.03 0.05 0.04 0.03 0.04 0.08 0.13 0.15 0.14 0.10 0.08 0.06 0.04 0.03 0.04 0.05 0.07 0.10 0.13
1.35 1.48 1.69 1.71 1.57 1.51 1.56 1.53 1.67 1.65 1.16 0.66 0.59 0.60 0.41 0.27 0.13 0.09 0.07 0.06 0.06 0.07 0.05 0.04 0.03 0.03 0.03 0.03 0.02 0.03 0.07 0.12 0.15 0.11 0.08 0.07 0.05 0.03 0.03 0.03 0.04 0.07 0.10
1.31 1.39 1.54 1.67 1.63 1.63 1.65 1.70 1.92 2.16 1.81 1.25 0.90 0.93 0.75 0.64 0.44 0.17 0.09 0.10 0.09 0.07 0.08 0.08 0.07 0.07 0.06 0.05 0.03 0.02 0.03 0.04 0.08 0.07 0.08 0.08 0.07 0.05 0.04 0.05 0.06 0.08 0.09
1.22 1.27 1.40 1.53 1.62 1.60 1.66 1.68 1.70 2.04 2.18 1.82 1.47 1.09 0.81 0.68 0.63 0.48 0.25 0.16 0.17 0.13 0.11 0.11 0.09 0.09 0.10 0.10 0.10 0.07 0.05 0.04 0.05 0.07 0.09 0.10 0.10 0.10 0.09 0.10 0.11 0.11 0.10
1.34 1.33 1.45 1.50 1.50 1.53 1.60 1.83 1.96 2.13 2.19 2.05 1.87 1.65 1.40 1.08 0.69 0.66 0.63 0.41 0.28 0.21 0.17 0.14 0.13 0.13 0.12 0.11 0.15 0.14 0.10 0.05 0.04 0.09 0.14 0.13 0.12 0.11 0.11 0.12 0.12 0.12 0.11
1.42 1.48 1.54 1.51 1.46 1.47 1.55 1.72 1.91 2.06 2.25 2.29 2.05 1.78 1.64 1.43 1.20 1.01 0.77 0.66 0.55 0.38 0.32 0.29 0.23 0.20 0.21 0.22 0.25 0.30 0.15 0.07 0.05 0.08 0.14 0.16 0.13 0.11 0.10 0.11 0.11 0.11 0.11
1.32 1.35 1.45 1.56 1.62 1.63 1.70 1.82 1.90 1.80 1.95 2.19 2.05 1.82 1.65 1.40 1.30 1.24 1.06 0.81 0.68 0.43 0.30 0.29 0.29 0.31 0.32 0.26 0.32 0.41 0.22 0.13 0.08 0.08 0.11 0.12 0.11 0.11 0.11 0.11 0.10 0.09 0.10
1.28 1.21 1.24 1.35 1.49 1.62 1.63 1.64 1.61 1.54 1.63 1.77 1.80 1.86 1.83 1.58 1.35 1.18 1.09 1.02 0.81 0.65 0.45 0.32 0.24 0.24 0.26 0.25 0.31 0.36 0.23 0.18 0.12 0.09 0.10 0.12 0.12 0.10 0.11 0.12 0.12 0.10 0.11
1.05 0.99 0.97 0.99 1.07 1.13 1.17 1.28 1.33 1.39 1.39 1.48 1.57 1.67 1.76 1.77 1.60 1.32 1.20 1.12 1.00 0.84 0.72 0.56 0.34 0.22 0.23 0.23 0.25 0.23 0.23 0.25 0.19 0.13 0.11 0.13 0.13 0.10 0.09 0.10 0.09 0.08 0.08
0.96 0.88 0.84 0.77 0.73 0.70 0.72 0.88 1.03 1.11 1.19 1.31 1.45 1.53 1.54 1.58 1.68 1.55 1.34 1.27 1.15 0.97 0.82 0.66 0.53 0.34 0.31 0.26 0.24 0.19 0.21 0.25 0.19 0.16 0.13 0.14 0.13 0.09 0.07 0.07 0.05 0.04 0.03
0.93 0.87 0.80 0.74 0.79 0.77 0.72 0.76 0.79 0.81 0.87 0.98 1.10 1.19 1.30 1.53 1.78 1.75 1.62 1.45 1.30 1.15 0.94 0.78 0.58 0.40 0.37 0.32 0.29 0.20 0.17 0.19 0.19 0.18 0.16 0.14 0.13 0.12 0.10 0.07 0.04 0.03 0.03
0.64 0.70 0.76 0.69 0.66 0.69 0.68 0.73 0.78 0.79 0.76 0.79 0.87 0.95 1.06 1.33 1.66 1.83 1.85 1.70 1.50 1.33 1.22 1.09 0.80 0.52 0.45 0.47 0.48 0.41 0.29 0.25 0.25 0.24 0.24 0.20 0.16 0.14 0.12 0.09 0.07 0.05 0.04
0.48 0.51 0.58 0.57 0.61 0.65 0.67 0.69 0.71 0.74 0.78 0.82 0.91 0.92 0.90 1.04 1.25 1.46 1.60 1.65 1.60 1.52 1.44 1.24 1.02 0.79 0.65 0.55 0.52 0.45 0.40 0.41 0.36 0.35 0.39 0.39 0.33 0.27 0.23 0.18 0.15 0.11 0.08
0.49 0.55 0.65 0.67 0.62 0.57 0.59 0.66 0.67 0.65 0.67 0.72 0.75 0.79 0.81 0.78 0.88 1.04 1.20 1.33 1.47 1.59 1.59 1.44 1.23 0.95 0.85 0.67 0.55 0.53 0.53 0.54 0.51 0.43 0.42 0.45 0.46 0.41 0.35 0.29 0.24 0.19 0.16
0.56 0.56 0.64 0.72 0.80 0.76 0.72 0.77 0.71 0.67 0.66 0.66 0.68 0.66 0.70 0.68 0.67 0.74 0.81 1.01 1.28 1.48 1.52 1.50 1.39 1.11 0.87 0.71 0.53 0.52 0.58 0.66 0.63 0.59 0.60 0.53 0.50 0.48 0.46 0.43 0.39 0.35 0.29
0.47 0.46 0.48 0.55 0.64 0.68 0.87 0.80 0.62 0.55 0.58 0.63 0.68 0.66 0.65 0.57 0.55 0.57 0.62 0.67 0.86 1.04 1.17 1.20 1.19 1.04 0.87 0.73 0.65 0.58 0.51 0.47 0.49 0.54 0.56 0.62 0.59 0.56 0.61 0.59 0.60 0.63 0.56
0.40 0.37 0.36 0.36 0.41 0.56 0.63 0.46 0.43 0.46 0.55 0.63 0.69 0.69 0.66 0.61 0.59 0.58 0.56 0.54 0.55 0.63 0.73 0.87 0.94 0.92 0.95 0.81 0.69 0.58 0.53 0.48 0.42 0.44 0.45 0.49 0.52 0.56 0.62 0.64 0.64 0.63 0.59
0.30 0.29 0.36 0.43 0.44 0.45 0.49 0.39 0.37 0.45 0.60 0.70 0.67 0.61 0.64 0.65 0.66 0.65 0.55 0.58 0.53 0.54 0.57 0.54 0.65 0.83 0.91 0.98 0.87 0.71 0.65 0.56 0.49 0.43 0.38 0.37 0.36 0.40 0.42 0.44 0.46 0.42 0.38
0.34 0.37 0.47 0.54 0.47 0.39 0.42 0.41 0.45 0.57 0.67 0.75 0.70 0.66 0.68 0.69 0.81 0.76 0.60 0.65 0.61 0.59 0.56 0.62 0.67 0.70 0.71 0.74 0.78 0.72 0.64 0.57 0.50 0.45 0.40 0.36 0.31 0.27 0.24 0.23 0.23 0.23 0.20
0.31 0.38 0.39 0.36 0.36 0.42 0.47 0.43 0.52 0.69 0.78 0.87 0.82 0.78 0.94 0.86 0.81 0.71 0.59 0.68 0.70 0.56 0.50 0.54 0.52 0.49 0.47 0.48 0.55 0.58 0.66 0.66 0.57 0.49 0.38 0.32 0.31 0.28 0.25 0.20 0.15 0.13 0.10